This demonstration page uses our WeatherBlox Daily Observations layout. Learn more.

Left ArrowRight Arrow

39.08367, -84.50855

Hourly Observations for April 29, 2015

Temp ( °F °C ) Dew Point ( °F °C ) Humidity (%) Winds ( mph kmh ) Pressure ( in mb ) Visibility ( mi km ) Precip ( " mm )
12:53 am 00:53 Clear 43 6.1 42 5.6 97 97 N N/A 29.95 1014 10 16 N/A
1:53 am 01:53 Clear 42 5.6 42 5.6 100 100 N N/A 29.94 1014 10 16 N/A
2:53 am 02:53 Clear 41 5 41 5 100 100 N N/A 29.92 1013 10 16 N/A
3:53 am 03:53 Clear 39 3.9 39 3.9 100 100 N N/A 29.91 1013 9 14 N/A
4:53 am 04:53 Clear 39 3.9 39 3.9 100 100 N N/A 29.91 1013 9 14 N/A
5:11 am 05:11 Clear with Mist and Fog 38 3.3 38 3.3 100 100 N N/A 29.94 1014 3 5 N/A
5:18 am 05:18 Clear with Mist and Fog 39 4 37 3 93 93 N N/A 29.94 1014 2 3 N/A
5:32 am 05:32 Clear with Mist and Fog 38 3.3 38 3.3 100 100 N N/A 29.94 1014 3 5 N/A
5:53 am 05:53 Clear 39 3.9 38 3.3 96 96 N N/A 29.91 1013 10 16 N/A
6:05 am 06:05 Clear with Mist and Fog 37 2.8 37 2.8 100 100 N N/A 29.94 1014 2 2 N/A
6:13 am 06:13 Clear with Fog 37 2.8 37 2.8 100 100 ENE 3 6 29.94 1014 1 1 N/A
6:19 am 06:19 Clear with Mist and Fog 37 2.8 37 2.8 100 100 N N/A 29.94 1014 3 4 N/A
6:27 am 06:27 Clear with Mist and Fog 38 3.3 38 3.3 100 100 N N/A 29.94 1014 3 5 N/A
6:42 am 06:42 Sunny with Mist and Fog 37 3 37 3 100 100 N N/A 29.94 1014 2 3 N/A
6:49 am 06:49 Sunny with Patchy Fog 37 3 37 3 100 100 N N/A 29.94 1014 10 16 N/A
6:53 am 06:53 Sunny with Patchy Fog 38 3.3 38 3.3 100 100 N N/A 29.91 1013 10 16 N/A
7:53 am 07:53 Sunny 42 5.6 41 5 96 96 N N/A 29.91 1013 10 16 N/A
8:53 am 08:53 Sunny 49 9.4 44 6.7 83 83 N N/A 29.91 1013 10 16 N/A
9:53 am 09:53 Sunny 55 12.8 45 7.2 69 69 N N/A 29.90 1013 10 16 N/A
10:53 am 10:53 Sunny 60 15.6 41 5 50 50 N N/A 29.89 1012 10 16 N/A
11:53 am 11:53 Sunny 62 16.7 41 5 46 46 VRB 5 7 29.88 1012 10 16 N/A
12:53 pm 12:53 Sunny 64 17.8 39 3.9 40 40 N N/A 29.86 1011 10 16 N/A
1:53 pm 13:53 Partly Cloudy 65 18.3 43 6.1 45 45 VRB 6 9 29.84 1010 10 16 N/A
2:53 pm 14:53 Mostly Sunny 66 18.9 41 5 40 40 VRB 5 7 29.81 1010 10 16 N/A
3:53 pm 15:53 Sunny 66 18.9 41 5 40 40 W 9 15 29.80 1009 10 16 N/A
4:53 pm 16:53 Partly Cloudy 67 19.4 42 5.6 41 41 VRB 3 6 29.78 1009 10 16 N/A
5:53 pm 17:53 Mostly Cloudy 68 20 41 5 38 38 N 8 13 29.78 1009 10 16 N/A
6:53 pm 18:53 Mostly Cloudy 64 17.8 40 4.4 41 41 NNW 10 17 29.78 1009 10 16 N/A
7:53 pm 19:53 Mostly Cloudy 63 17.2 40 4.4 43 43 N 9 15 29.78 1008 10 16 N/A
8:53 pm 20:53 Mostly Cloudy 61 16.1 41 5 48 48 N 6 9 29.79 1009 10 16 N/A
9:53 pm 21:53 Partly Cloudy 60 15.6 41 5 50 50 NNW 7 11 29.80 1009 10 16 N/A
10:53 pm 22:53 Cloudy 60 15.6 43 6.1 53 53 NW 6 9 29.80 1009 10 16 N/A
11:53 pm 23:53 Cloudy 59 15 43 6.1 56 56 NW 5 7 29.79 1009 10 16 N/A

Powered by AerisWeather